This is the latest recevied weather packets stored in our database for station/object EA4URC-10. If no packets are shown the sender has not sent any weather packets the latest 10 day(s).
| Time | Temp. | Humidity | Pressure | Rain* | Wind** | Luminosity | Snow |
|---|---|---|---|---|---|---|---|
| 1777707206 | 10.56° C | 100% | 1035.2 hPa | - | - | - | - |
| 1777705405 | 9.44° C | 100% | 1035 hPa | - | - | - | - |
| 1777703605 | 9.44° C | 100% | 1035.2 hPa | - | - | - | - |
| 1777701804 | 8.89° C | 100% | 1034.9 hPa | - | - | - | - |
| 1777700004 | 8.89° C | 100% | 1034.9 hPa | - | - | - | - |
| 1777698203 | 8.89° C | 100% | 1035 hPa | - | - | - | - |
| 1777696403 | 8.89° C | 100% | 1035.4 hPa | - | - | - | - |
| 1777694602 | 8.89° C | 100% | 1035.4 hPa | - | - | - | - |
| 1777692802 | 8.89° C | 100% | 1035.4 hPa | - | - | - | - |
| 1777691001 | 8.89° C | 100% | 1035.3 hPa | - | - | - | - |
| 1777689207 | 8.89° C | 100% | 1035.6 hPa | - | - | - | - |
| 1777687407 | 8.89° C | 100% | 1035.4 hPa | - | - | - | - |
| 1777685606 | 8.89° C | 100% | 1035.4 hPa | - | - | - | - |
| 1777683805 | 8.89° C | 100% | 1036 hPa | - | - | - | - |
| 1777682005 | 8.33° C | 100% | 1036.1 hPa | - | - | - | - |
| 1777680204 | 8.89° C | 100% | 1036.3 hPa | - | - | - | - |
| 1777678403 | 8.89° C | 100% | 1036.7 hPa | - | - | - | - |
| 1777676833 | 8.89° C | 100% | 1036.6 hPa | - | - | - | - |
| 1777676605 | 8.89° C | 100% | 1036.6 hPa | - | - | - | - |
| 1777674802 | 8.89° C | 100% | 1036.8 hPa | - | - | - | - |
| 1777673602 | 9.44° C | 100% | 1036.7 hPa | - | - | - | - |
| 1777673002 | 9.44° C | 100% | 1036.7 hPa | - | - | - | - |
| 1777671201 | 9.44° C | 100% | 1036.7 hPa | - | - | - | - |
| 1777669400 | 10° C | 100% | 1036.8 hPa | - | - | - | - |
| 1777667606 | 10° C | 100% | 1036.7 hPa | - | - | - | - |
* Rain since midnight (hover to see other rain measurements)
** Current wind speed in m/s (hover to see current wind gust speed)